GW5974 Weather Reports


time (UTC)temp
F
wind
direction
speed
knots
gust
knots
rain 1hr
in
rain 24hr
in
rain mn
in
humidity
%
barometer
mb
20260503215242 62 217 8.7 13.9 0.00 0.00 0.00 36 1013.2
20260503214740 62 301 6.1 13.0 0.00 0.00 0.00 37 1013.2
20260503214236 62 211 2.6 9.6 0.00 0.00 0.00 37 1013.2
20260503213735 63 216 7.0 12.2 0.00 0.00 0.00 36 1013.3
20260503213231 63 246 4.3 10.4 0.00 0.00 0.00 37 1013.1
20260503212728 62 254 8.7 13.9 0.00 0.00 0.00 37 1013.3
20260503212226 62 343 4.3 16.5 0.00 0.00 0.00 37 1013.2
20260503211723 62 275 4.3 10.4 0.00 0.00 0.00 38 1013.4
20260503211219 61 194 2.6 10.4 0.00 0.00 0.00 38 1013.3
20260503210715 62 253 6.1 15.6 0.00 0.00 0.00 38 1013.3
20260503210212 60 275 8.7 13.9 0.00 0.00 0.00 37 1013.4
20260503205708 61 218 7.0 13.9 0.00 0.00 0.00 38 1013.2
20260503205204 61 265 7.8 10.4 0.00 0.00 0.00 37 1013.3
20260503204700 61 235 5.2 12.2 0.00 0.00 0.00 39 1013.2
20260503204158 61 235 6.1 15.6 0.00 0.00 0.00 38 1013.4
20260503203655 61 264 4.3 12.2 0.00 0.00 0.00 38 1013.4
20260503203153 61 214 6.1 23.5 0.00 0.00 0.00 38 1013.5
20260503202650 61 215 3.5 7.0 0.00 0.00 0.00 38 1013.4
20260503202148 61 240 6.1 8.7 0.00 0.00 0.00 40 1013.5
20260503201646 62 272 12.2 15.6 0.00 0.00 0.00 37 1013.3
20260503201143 62 226 11.3 13.9 0.00 0.00 0.00 37 1013.5
20260503200639 63 213 7.0 13.0 0.00 0.00 0.00 37 1013.7
20260503200135 62 221 9.6 13.9 0.00 0.00 0.00 37 1013.7
20260503195632 62 241 7.8 13.0 0.00 0.00 0.00 35 1013.8
20260503195129 62 275 10.4 16.5 0.00 0.00 0.00 35 1013.9
20260503194626 61 205 7.0 13.9 0.00 0.00 0.00 36 1013.9
20260503194121 61 205 10.4 12.2 0.00 0.00 0.00 36 1013.7
20260503193619 61 202 5.2 12.2 0.00 0.00 0.00 37 1014.1
20260503193114 61 253 7.0 13.0 0.00 0.00 0.00 37 1014.3
20260503192610 62 254 10.4 16.5 0.00 0.00 0.00 35 1014.4
20260503192106 62 241 7.8 9.6 0.00 0.00 0.00 37 1014.1
20260503191603 61 235 7.0 16.5 0.00 0.00 0.00 38 1014.4
20260503191059 62 232 3.5 9.6 0.00 0.00 0.00 39 1014.3
20260503190557 62 227 5.2 12.2 0.00 0.00 0.00 36 1014.4
20260503190054 61 233 11.3 13.0 0.00 0.00 0.00 37 1014.5
20260503185550 61 235 9.6 13.0 0.00 0.00 0.00 37 1014.4
20260503185050 62 251 9.6 16.5 0.00 0.00 0.00 36 1014.7
20260503184546 62 225 4.3 18.2 0.00 0.00 0.00 38 1014.7
20260503184043 61 230 4.3 16.5 0.00 0.00 0.00 39 1014.8
20260503183539 62 218 7.0 13.9 0.00 0.00 0.00 37 1014.9
20260503183037 62 195 7.0 15.6 0.00 0.00 0.00 38 1014.9
20260503182535 62 218 7.8 10.4 0.00 0.00 0.00 38 1014.8
20260503182033 61 217 8.7 21.7 0.00 0.00 0.00 39 1014.9
20260503181529 61 209 7.8 12.2 0.00 0.00 0.00 39 1014.9
20260503181026 61 180 7.0 16.5 0.00 0.00 0.00 39 1015.2
20260503180523 61 212 11.3 18.2 0.00 0.00 0.00 39 1015.2
20260503180020 60 204 7.8 19.1 0.00 0.00 0.00 41 1015.1
20260503175518 60 179 7.0 12.2 0.00 0.00 0.00 38 1015.2
20260503175014 60 184 4.3 13.9 0.00 0.00 0.00 41 1015.3
20260503174512 61 228 7.8 12.2 0.00 0.00 0.00 40 1015.2
20260503174008 61 211 1.7 8.7 0.00 0.00 0.00 41 1015.6
20260503173503 61 189 1.7 6.1 0.00 0.00 0.00 45 1015.6
20260503173000 60 193 7.0 9.6 0.00 0.00 0.00 42 1015.5
20260503172457 60 213 6.1 12.2 0.00 0.00 0.00 43 1015.7
20260503171954 60 219 4.3 8.7 0.00 0.00 0.00 43 1015.7
20260503171451 60 192 2.6 8.7 0.00 0.00 0.00 41 1015.8
20260503170948 60 290 1.7 10.4 0.00 0.00 0.00 41 1015.9
20260503170444 60 204 6.1 13.0 0.00 0.00 0.00 41 1016.1
20260503150837 55 236 5.2 8.7 0.00 0.00 0.00 44 1016.9
20260503150333 55 181 2.6 10.4 0.00 0.00 0.00 44 1017.1
20260503140257 51 221 6.1 12.2 0.00 0.00 0.00 47 1017.3
20260503131227 46 206 6.1 10.4 0.00 0.00 0.00 53 1017.6
20260503130724 46 212 4.3 9.6 0.00 0.00 0.00 55 1017.6
20260503130221 46 214 5.2 10.4 0.00 0.00 0.00 55 1017.7
20260503120147 40 202 1.7 3.5 0.00 0.00 0.00 70 1017.7
20260503110615 36 195 0.9 2.6 0.00 0.00 0.00 79 1017.5
20260503110112 36 212 0.9 3.5 0.00 0.00 0.00 80 1017.4
20260503090502 36 174 0.0 0.9 0.00 0.00 0.00 84 1017.1
20260503081428 36 180 0.0 2.6 0.00 0.00 0.00 86 1017.3
20260503080925 35 179 0.0 0.0 0.00 0.00 0.00 85 1017.3
20260503080421 36 179 0.0 0.0 0.00 0.00 0.00 85 1017.4
20260503072858 37 179 0.0 0.9 0.00 0.00 0.00 83 1017.3
20260503072355 37 186 0.0 0.9 0.00 0.00 0.00 83 1017.3
20260503071851 37 198 0.9 0.9 0.00 0.00 0.00 83 1017.3
20260503071349 37 211 0.0 0.9 0.00 0.00 0.00 82 1017.3
20260503070844 37 187 0.0 0.9 0.00 0.00 0.00 82 1017.5
20260503070343 38 176 0.0 0.9 0.00 0.00 0.00 82 1017.3
20260503060314 38 182 0.0 0.9 0.00 0.00 0.00 83 1017.4
20260503054801 37 209 0.9 2.6 0.00 0.00 0.00 84 1017.6
20260503054258 37 166 0.0 0.0 0.00 0.00 0.00 84 1017.6
20260503053755 37 171 0.0 0.0 0.00 0.00 0.00 83 1017.6
20260503053254 37 175 0.0 0.9 0.00 0.00 0.00 83 1017.6
20260503052750 37 152 0.0 0.0 0.00 0.00 0.00 83 1017.7
20260503052247 37 172 0.0 0.0 0.00 0.00 0.00 83 1017.7
20260503051742 38 172 0.0 0.0 0.00 0.00 0.00 82 1017.6
20260503051240 38 172 0.0 0.0 0.00 0.00 0.00 82 1017.6
20260503050736 38 171 0.0 0.0 0.00 0.00 0.00 82 1017.6
20260503050232 38 173 0.0 0.0 0.00 0.00 0.00 81 1017.8
20260503045730 38 170 0.0 0.0 0.00 0.00 0.00 81 1017.5
20260503045228 38 165 0.0 0.0 0.00 0.00 0.00 80 1017.8
20260503044724 39 165 0.0 0.0 0.00 0.00 0.00 80 1017.8
20260503044221 39 165 0.0 0.0 0.00 0.00 0.00 79 1017.7
20260503043718 39 165 0.0 0.0 0.00 0.00 0.00 78 1017.8
20260503043216 40 165 0.0 0.0 0.00 0.00 0.00 77 1017.9
20260503042711 40 172 0.0 0.9 0.00 0.00 0.00 76 1017.6
20260503042208 40 171 0.0 0.9 0.00 0.00 0.00 76 1017.9
20260503041704 40 170 0.0 0.9 0.00 0.00 0.00 75 1017.8
20260503041202 41 173 0.0 0.0 0.00 0.00 0.00 74 1017.9
20260503040659 41 177 0.0 0.9 0.00 0.00 0.00 74 1017.8
20260503040157 41 192 0.0 0.9 0.00 0.00 0.00 73 1018.0
20260503035653 41 175 0.0 0.9 0.00 0.14 0.14 73 1017.9
20260503035151 42 197 1.7 2.6 0.00 0.14 0.14 72 1017.9
20260503034648 42 179 0.0 2.6 0.00 0.14 0.14 72 1018.0
20260503034145 42 201 1.7 3.5 0.00 0.14 0.14 71 1018.0
20260503033642 42 182 0.0 2.6 0.00 0.14 0.14 71 1018.0
20260503033140 42 199 1.7 3.5 0.00 0.14 0.14 71 1017.9
20260503032638 42 176 0.0 3.5 0.00 0.14 0.14 71 1018.0
20260503032137 42 197 0.9 3.5 0.00 0.14 0.14 71 1018.2
20260503031633 42 191 1.7 4.3 0.00 0.14 0.14 70 1018.1
20260503031131 42 216 1.7 2.6 0.00 0.14 0.14 70 1018.2
20260503030626 42 197 1.7 3.5 0.00 0.14 0.14 70 1018.0
20260503030123 43 175 0.0 0.9 0.00 0.14 0.14 70 1018.2
20260503025620 43 205 0.9 0.9 0.00 0.14 0.14 70 1018.0
20260503025118 43 177 0.9 2.6 0.00 0.14 0.14 69 1018.2
20260503024615 43 197 2.6 4.3 0.00 0.14 0.14 68 1018.2
20260503024112 43 209 3.5 3.5 0.00 0.14 0.14 68 1018.2
20260503023609 43 182 0.9 0.9 0.00 0.14 0.14 68 1018.4
20260503023106 43 199 1.7 2.6 0.00 0.14 0.14 68 1018.4
20260503022601 43 188 1.7 2.6 0.00 0.14 0.14 67 1018.3
20260503022056 43 177 0.0 0.9 0.00 0.14 0.14 67 1018.5
20260503021553 43 177 0.0 2.6 0.00 0.14 0.14 67 1018.4
20260503021050 43 202 1.7 2.6 0.00 0.14 0.14 67 1018.5
20260503020547 43 165 0.0 0.0 0.00 0.14 0.14 66 1018.4
20260503020044 43 179 0.0 2.6 0.00 0.14 0.14 65 1018.3
20260503015541 43 174 0.0 0.9 0.00 0.14 0.14 65 1018.4
20260503015038 43 174 0.0 0.9 0.00 0.14 0.14 65 1018.4
20260503014534 43 182 0.0 0.9 0.00 0.14 0.14 65 1018.2
20260503014032 43 160 0.0 0.9 0.00 0.14 0.14 64 1018.1
20260503013529 43 177 0.0 0.9 0.00 0.14 0.14 64 1018.2
20260503013027 43 177 0.0 0.0 0.00 0.14 0.14 63 1018.2
20260503012524 43 182 0.9 0.9 0.00 0.14 0.14 63 1018.1
20260503012020 43 182 0.9 0.9 0.00 0.14 0.14 63 1018.0
20260503011517 43 166 0.0 0.0 0.00 0.14 0.14 62 1018.1
20260503011014 43 166 0.0 0.0 0.00 0.14 0.14 63 1018.2
20260503010510 43 166 0.0 0.0 0.00 0.14 0.14 62 1018.0
20260503010008 44 166 0.0 0.0 0.00 0.14 0.14 62 1018.1
20260503005505 44 166 0.0 0.0 0.00 0.14 0.14 60 1018.0
20260503005002 44 165 0.0 0.0 0.00 0.14 0.14 60 1018.1
20260503004458 44 166 0.0 0.0 0.00 0.14 0.14 58 1018.1
20260503003956 44 164 0.0 0.0 0.00 0.14 0.14 58 1017.9
20260503003453 44 163 0.0 0.0 0.00 0.14 0.14 59 1017.9
20260503002950 44 163 0.0 0.0 0.00 0.14 0.14 58 1018.0
20260503002447 44 162 0.0 0.0 0.00 0.14 0.14 57 1018.0
20260503001943 44 170 0.0 0.0 0.00 0.14 0.14 57 1018.1
20260503001440 44 163 0.0 0.9 0.00 0.14 0.14 55 1018.1
20260503000938 44 154 0.0 0.0 0.00 0.14 0.14 55 1018.1
20260503000434 45 146 0.0 0.0 0.00 0.14 0.14 56 1017.9
20260502235932 45 129 0.0 0.9 0.00 0.14 0.14 54 1017.9
20260502235428 45 154 0.0 0.0 0.00 0.14 0.14 55 1017.9
20260502234926 45 141 0.0 0.9 0.00 0.14 0.14 55 1017.9
20260502234422 45 277 1.7 3.5 0.00 0.14 0.14 53 1017.9
20260502233919 45 182 0.0 0.9 0.00 0.14 0.14 54 1017.9
20260502233414 45 141 0.0 0.0 0.00 0.14 0.14 56 1018.1
20260502232912 45 122 0.9 0.9 0.00 0.14 0.14 55 1017.9
20260502232408 45 287 1.7 3.5 0.00 0.14 0.14 55 1017.9
20260502231905 45 241 2.6 4.3 0.00 0.14 0.14 54 1018.0
20260502231403 45 126 0.0 0.9 0.00 0.14 0.14 54 1018.1
20260502230901 46 310 3.5 3.5 0.00 0.14 0.14 52 1017.9
20260502230359 46 172 0.9 2.6 0.00 0.14 0.14 52 1018.0
20260502225855 46 133 0.0 0.9 0.00 0.14 0.14 55 1018.1
20260502225352 46 196 0.9 2.6 0.00 0.14 0.14 53 1018.2
20260502224849 45 151 0.0 2.6 0.00 0.14 0.14 53 1018.1
20260502224345 46 316 1.7 2.6 0.00 0.14 0.14 53 1018.2
20260502223843 46 350 0.9 2.6 0.00 0.14 0.14 52 1018.1
20260502223341 46 245 1.7 3.5 0.00 0.14 0.14 50 1018.2
20260502222838 46 330 1.7 7.0 0.00 0.14 0.14 51 1018.2
20260502222336 47 310 4.3 6.1 0.00 0.14 0.14 51 1018.2
20260502221831 48 0 5.2 7.0 0.00 0.14 0.14 49 1018.1
20260502221327 48 351 0.9 3.5 0.00 0.14 0.14 51 1018.1
20260502220825 48 309 1.7 4.3 0.00 0.14 0.14 50 1018.1
20260502220320 47 70 1.7 2.6 0.00 0.14 0.14 52 1018.2
20260502215817 47 234 2.6 7.0 0.00 0.14 0.14 51 1018.1